Tracking 30995 objects as of 5-Jul-2025
HD Live streaming from Space Station
objects crossing your sky now

OPS 5712 (P/L 152)

Track OPS 5712 (P/L 152) now!
10-day predictions
OPS 5712 (P/L 152) is classified as:


NORAD ID: 2873
Int'l Code: 1967-053G
Perigee: 899.1 km
Apogee: 913.7 km
Inclination: 70.0 °
Period: 103.0 minutes
Semi major axis: 7277 km
RCS: 0.648 m2 (medium)
Launch date: May 31, 1967
Source: United States (US)
Launch site: AIR FORCE WESTERN TEST RANGE (AFWTR)
Your satellite tracking list
ONEWEB-0222
Track 1 satellite(s)




NASA's NSSDC Master Catalog

Two Line Element Set (TLE):
1 02873U 67053G   25186.14551979  .00000053  00000-0  74566-4 0  9994
2 02873  69.9747  75.9270 0010066 252.1030 264.1725 13.98421166959999
Source of the keplerian elements: AFSPC